Regional Weather Roundup
Issued by NWS

Home | Current Version | Previous Version | Graphics & Text | Print | Product List | Glossary On
Versions: 1 2 3 4 5 6 7 8 9 10 11 12 13 14 15 16 17 18 19 20 21 22 23 24 25 26 27 28 29 30 31 32 33 34 35 36 37 38 39 40 41 42 43 44 45 46 47 48 49 50
000
ASUS44 KMEG 170010
RWRTN
TENNESSEE HOURLY STATE WEATHER ROUNDUP
NATIONAL WEATHER SERVICE MEMPHIS TN
600 PM CST MON JAN 16 2017

TNZ002-004-019-021-049-052-054-088>092-170100-
WEST TENNESSEE

CITY           SKY/WX    TMP DP  RH WIND       PRES   REMARKS
MEMPHIS INTL   CLOUDY    64  62  93 S13       30.00S
NWS MEMPHIS      N/A     64 N/A N/A MISG        N/A
JACKSON        CLOUDY    66  60  81 S10       30.03F
DYERSBURG      CLOUDY    64  59  82 S9        30.00S
UNION CITY     MOCLDY    63  63 100 S10       29.98F
PARIS          CLOUDY    63  55  77 S8        30.03F
HUNTINGDON     CLOUDY    66  57  72 S12       30.03F
$$

TNZ008-025-027-028-033-062-065-066-170100-
NORTH MIDDLE TENNESSEE

CITY           SKY/WX    TMP DP  RH WIND       PRES   REMARKS
NASHVILLE      CLOUDY    66  50  56 S8        30.11F
PORTLAND       MOCLDY    64  52  63 S8        30.11S
CLARKSVILLE    CLOUDY    62  51  67 SE9       30.06F
SMYRNA         CLOUDY    66  52  60 S9        30.12S
GALLATIN       MOCLDY    66  52  59 S7G13     30.14S
CROSSVILLE     CLOUDY    58  52  80 S7        30.20S
$$

TNZ061-075-076-078-094-096-097-170100-
SOUTH MIDDLE TENNESSEE

CITY           SKY/WX    TMP DP  RH WIND       PRES   REMARKS
FAYETTEVILLE   PTCLDY    64  52  63 S7        30.15F
TULLAHOMA      PTCLDY    64  46  52 S6        30.16S
WINCHESTER     PTCLDY    64  52  63 S6        30.17S
MCMINNVILLE    MOCLDY    66  52  59 S3        30.16S
COLUMBIA       PTCLDY    66  61  82 S6        30.10S
SHELBYVILLE    PTCLDY    68  52  56 S9        30.14F
$$

TNZ017-018-042-046-047-170100-
NORTHEAST TENNESSEE

CITY           SKY/WX    TMP DP  RH WIND       PRES   REMARKS
TRI CITIES     CLOUDY    60  48  64 CALM      30.23R
ELIZABETHTON   CLOUDY    57  52  82 CALM      30.23S
$$

TNZ012-013-036-069-073-074-170100-
CENTRAL EAST TENNESSEE

CITY           SKY/WX    TMP DP  RH WIND       PRES   REMARKS
KNOXVILLE      CLOUDY    59  53  80 NE3       30.20S
OAK RIDGE      CLOUDY    57  53  86 CALM      30.22S
GATLINBURG     PTCLDY    55  54  94 CALM      30.21S
MORRISTOWN     MOCLDY    57  57 100 CALM      30.21S
JACKSBORO      PTCLDY    55  54  94 CALM      30.23S
$$

TNZ083-085-099-170100-
SOUTHEAST TENNESSEE

CITY           SKY/WX    TMP DP  RH WIND       PRES   REMARKS
CHATTANOOGA    CLOUDY    64  53  67 SE5       30.20S
$$

SKY/WX REPORTED AS FAIR MEANS FEW OR NO CLOUDS BELOW
12 THOUSAND FEET.





USA.gov is the U.S. government's official web portal to all federal, state and local government web resources and services.